| time (UTC) | temp F | wind direction | speed knots | gust knots | rain 1hr in | rain 24hr in | rain mn in | humidity % | barometer mb |
| 20260507200525 | 52 | 0.0 | 0.0 | 0.02 | 0.03 | 0.03 | 93 | 1015.8 | |
| 20260507195521 | 52 | 0 | 0.0 | 0.9 | 0.02 | 0.03 | 0.03 | 92 | 1015.8 |
| 20260507194516 | 52 | 0.0 | 0.0 | 0.02 | 0.03 | 0.03 | 91 | 1015.6 | |
| 20260507193527 | 52 | 0.0 | 0.0 | 0.03 | 0.03 | 0.03 | 90 | 1015.3 | |
| 20260507192523 | 52 | 0.0 | 0.0 | 0.03 | 0.03 | 0.03 | 88 | 1015.1 | |
| 20260507191519 | 53 | 18 | 0.0 | 1.7 | 0.03 | 0.03 | 0.03 | 86 | 1015.2 |
| 20260507190515 | 53 | 330 | 0.9 | 2.6 | 0.01 | 0.01 | 0.01 | 83 | 1015.0 |
| 20260507185526 | 53 | 341 | 0.0 | 2.6 | 0.01 | 0.01 | 0.01 | 81 | 1014.8 |
| 20260507184521 | 54 | 90 | 0.0 | 1.7 | 0.01 | 0.01 | 0.01 | 79 | 1014.7 |
| 20260507183517 | 54 | 70 | 3.5 | 6.1 | 0.00 | 0.00 | 0.00 | 74 | 1014.5 |
| 20260507182528 | 54 | 72 | 3.5 | 7.8 | 0.00 | 0.00 | 0.00 | 72 | 1014.3 |
| 20260507181524 | 55 | 42 | 5.2 | 9.6 | 0.00 | 0.00 | 0.00 | 70 | 1014.2 |
| 20260507180520 | 56 | 27 | 6.1 | 13.0 | 0.00 | 0.00 | 0.00 | 67 | 1013.8 |
| 20260507175515 | 57 | 336 | 7.0 | 15.6 | 0.00 | 0.00 | 0.00 | 64 | 1013.3 |
| 20260507174526 | 61 | 39 | 8.7 | 17.4 | 0.00 | 0.00 | 0.00 | 59 | 1012.9 |
| 20260507173522 | 63 | 8 | 11.3 | 20.0 | 0.00 | 0.00 | 0.00 | 52 | 1012.0 |
| 20260507172517 | 67 | 17 | 7.0 | 22.6 | 0.00 | 0.00 | 0.00 | 53 | 1011.2 |
| 20260507171529 | 68 | 194 | 0.0 | 1.7 | 0.00 | 0.00 | 0.00 | 53 | 1010.4 |
| 20260507170524 | 68 | 180 | 2.6 | 6.1 | 0.00 | 0.00 | 0.00 | 52 | 1010.2 |
| 20260507165520 | 69 | 194 | 6.1 | 10.4 | 0.00 | 0.00 | 0.00 | 51 | 1009.9 |
| 20260507164516 | 69 | 202 | 5.2 | 7.8 | 0.00 | 0.00 | 0.00 | 50 | 1009.9 |
| 20260507163527 | 70 | 210 | 3.5 | 7.0 | 0.00 | 0.00 | 0.00 | 49 | 1009.9 |
| 20260507162523 | 73 | 175 | 4.3 | 7.8 | 0.00 | 0.00 | 0.00 | 42 | 1009.8 |
| 20260507161519 | 73 | 226 | 4.3 | 7.0 | 0.00 | 0.00 | 0.00 | 44 | 1009.8 |
| 20260507160530 | 71 | 180 | 4.3 | 6.1 | 0.00 | 0.00 | 0.00 | 51 | 1009.7 |
| 20260507155525 | 72 | 188 | 5.2 | 8.7 | 0.00 | 0.00 | 0.00 | 46 | 1009.5 |
| 20260507154521 | 74 | 186 | 6.1 | 10.4 | 0.00 | 0.00 | 0.00 | 44 | 1009.6 |
| 20260507153517 | 74 | 175 | 4.3 | 8.7 | 0.00 | 0.00 | 0.00 | 45 | 1009.6 |
| 20260507152527 | 74 | 180 | 7.8 | 12.2 | 0.00 | 0.00 | 0.00 | 46 | 1009.6 |
| 20260507151524 | 74 | 189 | 6.1 | 10.4 | 0.00 | 0.00 | 0.00 | 45 | 1009.5 |
| 20260507150519 | 74 | 215 | 5.2 | 10.4 | 0.00 | 0.00 | 0.00 | 45 | 1009.5 |
| 20260507145515 | 74 | 185 | 6.1 | 10.4 | 0.00 | 0.00 | 0.00 | 45 | 1009.7 |
| 20260507144526 | 74 | 201 | 5.2 | 10.4 | 0.00 | 0.00 | 0.00 | 46 | 1009.7 |
| 20260507143521 | 74 | 199 | 6.1 | 9.6 | 0.00 | 0.00 | 0.00 | 47 | 1009.8 |
| 20260507142517 | 74 | 189 | 7.0 | 12.2 | 0.00 | 0.00 | 0.00 | 46 | 1009.7 |
| 20260507141528 | 74 | 225 | 5.2 | 10.4 | 0.00 | 0.00 | 0.00 | 46 | 1009.8 |
| 20260507140524 | 74 | 180 | 7.0 | 10.4 | 0.00 | 0.00 | 0.00 | 47 | 1009.8 |
| 20260507135520 | 72 | 183 | 6.1 | 13.0 | 0.00 | 0.00 | 0.00 | 50 | 1009.9 |
| 20260507134515 | 72 | 181 | 6.1 | 12.2 | 0.00 | 0.00 | 0.00 | 47 | 1010.0 |
| 20260507133526 | 72 | 191 | 5.2 | 8.7 | 0.00 | 0.00 | 0.00 | 44 | 1010.0 |
| 20260507132522 | 73 | 187 | 6.1 | 10.4 | 0.00 | 0.00 | 0.00 | 44 | 1010.1 |
| 20260507131525 | 73 | 208 | 7.8 | 12.2 | 0.00 | 0.00 | 0.00 | 43 | 1010.1 |
| 20260507130520 | 71 | 193 | 5.2 | 7.8 | 0.00 | 0.00 | 0.00 | 50 | 1010.3 |
| 20260507125516 | 71 | 179 | 5.2 | 8.7 | 0.00 | 0.00 | 0.00 | 50 | 1010.4 |
| 20260507124527 | 71 | 193 | 5.2 | 8.7 | 0.00 | 0.00 | 0.00 | 50 | 1010.5 |
| 20260507123523 | 72 | 185 | 6.1 | 10.4 | 0.00 | 0.00 | 0.00 | 46 | 1010.4 |
| 20260507122519 | 74 | 196 | 3.5 | 10.4 | 0.00 | 0.00 | 0.00 | 42 | 1010.5 |
| 20260507121530 | 77 | 159 | 3.5 | 7.8 | 0.00 | 0.00 | 0.00 | 41 | 1010.5 |
| 20260507120526 | 76 | 180 | 2.6 | 3.5 | 0.00 | 0.00 | 0.00 | 39 | 1010.7 |
| 20260507115521 | 76 | 143 | 1.7 | 4.3 | 0.00 | 0.00 | 0.00 | 38 | 1010.7 |
| 20260507114517 | 76 | 153 | 2.6 | 5.2 | 0.00 | 0.00 | 0.00 | 41 | 1010.8 |
| 20260507113528 | 75 | 164 | 2.6 | 5.2 | 0.00 | 0.00 | 0.00 | 42 | 1010.8 |
| 20260507112524 | 74 | 149 | 2.6 | 5.2 | 0.00 | 0.00 | 0.00 | 42 | 1010.9 |
| 20260507111521 | 74 | 209 | 3.5 | 6.1 | 0.00 | 0.00 | 0.00 | 42 | 1011.0 |
| 20260507110516 | 74 | 158 | 2.6 | 3.5 | 0.00 | 0.00 | 0.00 | 43 | 1011.0 |
| 20260507105526 | 73 | 170 | 0.9 | 3.5 | 0.00 | 0.00 | 0.00 | 44 | 1011.1 |
| 20260507104522 | 72 | 157 | 2.6 | 5.2 | 0.00 | 0.00 | 0.00 | 46 | 1011.1 |
| 20260507103518 | 72 | 146 | 0.9 | 7.0 | 0.00 | 0.00 | 0.00 | 45 | 1011.2 |
| 20260507102529 | 73 | 180 | 2.6 | 6.1 | 0.00 | 0.00 | 0.00 | 44 | 1011.3 |
| 20260507101524 | 72 | 208 | 1.7 | 6.1 | 0.00 | 0.00 | 0.00 | 45 | 1011.4 |
| 20260507100527 | 73 | 174 | 2.6 | 5.2 | 0.00 | 0.00 | 0.00 | 44 | 1011.5 |
| 20260507095522 | 73 | 174 | 2.6 | 6.1 | 0.00 | 0.00 | 0.00 | 44 | 1011.5 |
| 20260507094518 | 74 | 201 | 3.5 | 5.2 | 0.00 | 0.00 | 0.00 | 43 | 1011.5 |
| 20260507093528 | 74 | 192 | 0.0 | 4.3 | 0.00 | 0.00 | 0.00 | 45 | 1011.7 |
| 20260507092524 | 71 | 191 | 0.9 | 3.5 | 0.00 | 0.00 | 0.00 | 49 | 1011.6 |
| 20260507091520 | 72 | 177 | 1.7 | 4.3 | 0.00 | 0.00 | 0.00 | 46 | 1011.6 |
| 20260507090516 | 70 | 180 | 0.9 | 3.5 | 0.00 | 0.00 | 0.00 | 52 | 1011.6 |
| 20260507085527 | 70 | 173 | 1.7 | 5.2 | 0.00 | 0.00 | 0.00 | 54 | 1011.6 |
| 20260507084523 | 68 | 178 | 1.7 | 3.5 | 0.00 | 0.00 | 0.00 | 58 | 1011.6 |
| 20260507083519 | 66 | 198 | 0.9 | 3.5 | 0.00 | 0.00 | 0.00 | 60 | 1011.6 |
| 20260507082529 | 66 | 188 | 0.9 | 3.5 | 0.00 | 0.00 | 0.00 | 59 | 1011.6 |
| 20260507081525 | 66 | 180 | 0.0 | 2.6 | 0.00 | 0.00 | 0.00 | 60 | 1011.5 |
| 20260507080521 | 65 | 0.0 | 0.0 | 0.00 | 0.00 | 0.00 | 62 | 1011.2 | |
| 20260507075517 | 64 | 180 | 0.0 | 1.7 | 0.00 | 0.00 | 0.00 | 62 | 1011.4 |
| 20260507074528 | 63 | 189 | 0.0 | 1.7 | 0.00 | 0.00 | 0.00 | 62 | 1011.2 |
| 20260507073523 | 63 | 0.0 | 0.0 | 0.00 | 0.00 | 0.00 | 66 | 1011.3 | |
| 20260507072519 | 62 | 0.0 | 0.0 | 0.00 | 0.00 | 0.00 | 67 | 1011.2 | |
| 20260507071515 | 62 | 0.0 | 0.0 | 0.00 | 0.00 | 0.00 | 68 | 1011.0 | |
| 20260507070516 | 61 | 0.0 | 0.0 | 0.00 | 0.00 | 0.00 | 71 | 1010.8 | |
| 20260507065527 | 60 | 0.0 | 0.0 | 0.00 | 0.00 | 0.00 | 72 | 1010.8 | |
| 20260507064522 | 60 | 0.0 | 0.0 | 0.00 | 0.00 | 0.00 | 73 | 1010.7 | |
| 20260507063518 | 60 | 0.0 | 0.0 | 0.00 | 0.00 | 0.00 | 74 | 1010.5 | |
| 20260507062529 | 59 | 0.0 | 0.0 | 0.00 | 0.00 | 0.00 | 76 | 1010.6 | |
| 20260507061525 | 59 | 0.0 | 0.0 | 0.00 | 0.00 | 0.00 | 77 | 1010.6 | |
| 20260507060521 | 58 | 0.0 | 0.0 | 0.00 | 0.00 | 0.00 | 76 | 1010.5 | |
| 20260507055517 | 58 | 0.0 | 0.0 | 0.00 | 0.00 | 0.00 | 77 | 1010.3 | |
| 20260507054528 | 58 | 0.0 | 0.0 | 0.00 | 0.00 | 0.00 | 77 | 1010.2 | |
| 20260507053523 | 57 | 0.0 | 0.0 | 0.00 | 0.00 | 0.00 | 77 | 1010.2 | |
| 20260507052519 | 57 | 0.0 | 0.0 | 0.00 | 0.00 | 0.00 | 77 | 1010.2 | |
| 20260507051530 | 57 | 0.0 | 0.0 | 0.00 | 0.00 | 0.00 | 77 | 1010.1 | |
| 20260507050526 | 56 | 0.0 | 0.0 | 0.00 | 0.00 | 0.00 | 78 | 1009.9 | |
| 20260507045522 | 56 | 0.0 | 0.0 | 0.00 | 0.00 | 0.00 | 77 | 1009.9 | |
| 20260507044517 | 57 | 0.0 | 0.0 | 0.00 | 0.00 | 0.00 | 76 | 1009.6 | |
| 20260507043528 | 57 | 0.0 | 0.0 | 0.00 | 0.00 | 0.00 | 76 | 1009.6 | |
| 20260507042524 | 56 | 0.0 | 0.0 | 0.00 | 0.00 | 0.00 | 76 | 1009.5 | |
| 20260507041520 | 57 | 0.0 | 0.0 | 0.00 | 0.00 | 0.00 | 76 | 1009.5 | |
| 20260507040530 | 57 | 0.0 | 0.0 | 0.00 | 0.00 | 0.00 | 76 | 1009.4 | |
| 20260507035526 | 56 | 0.0 | 0.0 | 0.00 | 0.00 | 0.00 | 77 | 1009.4 | |
| 20260507034521 | 56 | 0.0 | 0.0 | 0.00 | 0.00 | 0.00 | 77 | 1009.5 | |
| 20260507033517 | 56 | 0.0 | 0.0 | 0.00 | 0.00 | 0.00 | 76 | 1009.5 | |
| 20260507032519 | 56 | 0.0 | 0.0 | 0.00 | 0.00 | 0.00 | 75 | 1009.4 | |
| 20260507031515 | 57 | 0.0 | 0.0 | 0.00 | 0.00 | 0.00 | 74 | 1009.4 | |
| 20260507030526 | 58 | 0.0 | 0.0 | 0.00 | 0.00 | 0.00 | 72 | 1009.4 | |
| 20260507025522 | 58 | 0.0 | 0.0 | 0.00 | 0.00 | 0.00 | 72 | 1009.4 | |
| 20260507024518 | 59 | 0.0 | 0.0 | 0.00 | 0.00 | 0.00 | 71 | 1009.4 | |
| 20260507023529 | 59 | 0.0 | 0.0 | 0.00 | 0.00 | 0.00 | 71 | 1009.4 | |
| 20260507022525 | 59 | 0.0 | 0.0 | 0.00 | 0.00 | 0.00 | 71 | 1009.5 | |
| 20260507021520 | 59 | 0.0 | 0.0 | 0.00 | 0.00 | 0.00 | 71 | 1009.4 | |
| 20260507020531 | 59 | 0.0 | 0.0 | 0.00 | 0.00 | 0.00 | 71 | 1009.5 | |
| 20260507015517 | 60 | 315 | 0.0 | 1.7 | 0.00 | 0.00 | 0.00 | 71 | 1009.5 |
| 20260507014528 | 60 | 0.0 | 0.0 | 0.00 | 0.00 | 0.00 | 70 | 1009.5 | |
| 20260507013525 | 60 | 0.0 | 0.0 | 0.00 | 0.00 | 0.00 | 70 | 1009.3 | |
| 20260507012520 | 61 | 0.0 | 0.0 | 0.00 | 0.00 | 0.00 | 69 | 1009.3 | |
| 20260507011516 | 61 | 0 | 0.0 | 0.9 | 0.00 | 0.00 | 0.00 | 69 | 1009.2 |
| 20260507010527 | 61 | 0.0 | 0.0 | 0.00 | 0.00 | 0.00 | 68 | 1009.1 | |
| 20260507005522 | 61 | 276 | 0.9 | 3.5 | 0.00 | 0.00 | 0.00 | 68 | 1009.2 |
| 20260507004518 | 61 | 270 | 0.0 | 2.6 | 0.00 | 0.00 | 0.00 | 68 | 1009.2 |
| 20260507003529 | 61 | 321 | 0.0 | 2.6 | 0.00 | 0.00 | 0.00 | 67 | 1009.2 |
| 20260507002525 | 62 | 274 | 0.0 | 3.5 | 0.00 | 0.00 | 0.00 | 68 | 1009.2 |
| 20260507001521 | 61 | 250 | 0.0 | 3.5 | 0.00 | 0.00 | 0.00 | 68 | 1009.3 |
| 20260507000516 | 61 | 0.0 | 0.0 | 0.00 | 0.00 | 0.00 | 69 | 1009.5 | |
| 20260506235527 | 61 | 171 | 0.0 | 3.5 | 0.00 | 0.00 | 0.00 | 69 | 1009.4 |
| 20260506234523 | 61 | 251 | 0.0 | 2.6 | 0.00 | 0.00 | 0.00 | 67 | 1009.5 |
| 20260506233519 | 62 | 297 | 0.0 | 3.5 | 0.00 | 0.00 | 0.00 | 67 | 1009.5 |
| 20260506232530 | 62 | 231 | 0.0 | 1.7 | 0.00 | 0.00 | 0.00 | 67 | 1009.5 |
| 20260506231526 | 62 | 270 | 0.0 | 1.7 | 0.00 | 0.00 | 0.00 | 67 | 1009.6 |
| 20260506230521 | 62 | 0.0 | 0.0 | 0.00 | 0.00 | 0.00 | 66 | 1009.6 | |
| 20260506225517 | 62 | 315 | 0.0 | 2.6 | 0.00 | 0.00 | 0.00 | 66 | 1009.4 |
| 20260506224528 | 62 | 225 | 0.0 | 0.9 | 0.00 | 0.00 | 0.00 | 66 | 1009.5 |
| 20260506223524 | 62 | 270 | 0.0 | 0.9 | 0.00 | 0.00 | 0.00 | 66 | 1009.3 |
| 20260506222520 | 63 | 0.0 | 0.0 | 0.00 | 0.00 | 0.00 | 66 | 1009.2 | |
| 20260506221516 | 63 | 0.0 | 0.0 | 0.00 | 0.00 | 0.00 | 66 | 1009.2 | |
| 20260506220526 | 63 | 0.0 | 0.9 | 0.00 | 0.00 | 0.00 | 66 | 1009.1 | |
| 20260506215522 | 62 | 270 | 0.0 | 1.7 | 0.00 | 0.00 | 0.00 | 67 | 1009.1 |
| 20260506214524 | 62 | 234 | 1.7 | 7.0 | 0.00 | 0.00 | 0.00 | 70 | 1009.3 |
| 20260506213520 | 59 | 253 | 0.0 | 2.6 | 0.00 | 0.00 | 0.00 | 76 | 1009.3 |
| 20260506212516 | 59 | 0.0 | 0.0 | 0.00 | 0.00 | 0.00 | 76 | 1009.1 | |
| 20260506211527 | 58 | 0.0 | 0.0 | 0.00 | 0.00 | 0.00 | 75 | 1009.0 | |
| 20260506210522 | 58 | 0.0 | 0.0 | 0.00 | 0.00 | 0.00 | 75 | 1009.0 | |
| 20260506205518 | 59 | 0.0 | 0.0 | 0.00 | 0.00 | 0.00 | 74 | 1009.0 | |
| 20260506204529 | 59 | 0.0 | 0.0 | 0.00 | 0.00 | 0.00 | 73 | 1008.9 | |
| 20260506203525 | 59 | 0.0 | 0.0 | 0.00 | 0.00 | 0.00 | 73 | 1009.0 | |
| 20260506202521 | 59 | 0.0 | 0.0 | 0.00 | 0.00 | 0.00 | 72 | 1008.9 | |
| 20260506201517 | 60 | 0.0 | 0.0 | 0.00 | 0.00 | 0.00 | 71 | 1008.9 |